When you browse on this site, cookies collect data to enhance your experience and personalize the content and advertising you see.
Visit our Privacy Policy to learn more. By continuing to use the site, you agree to this use of cookies and data.
  • In Spain
  • List of Countries
  • For 7 days
  • Water Temperature
  • Satellite Maps
  • Weather Map
  • Weather Widgets
  • user-avatar
    Login

    Hourly Weather Atzitzintla

    Today, 19 February, Tuesday

    Time Temperature Precipitation Wind Pressure Humidity
    00:00 +12°C° 0.2 mm 1 mps 552 mmHg 94%
    01:00 +11°C° 0 mm 1 mps 552 mmHg 94%
    02:00 +11°C° 0 mm 1 mps 551 mmHg 94%
    03:00 +10°C° 0 mm 1 mps 550 mmHg 94%
    04:00 +10°C° 0 mm 1 mps 550 mmHg 93%
    05:00 +9°C° 0 mm 1 mps 550 mmHg 92%
    06:00 +9°C° 0 mm 1 mps 550 mmHg 92%
    07:00 +11°C° 0 mm 1 mps 551 mmHg 84%
    08:00 +13°C° 0 mm 2 mps 552 mmHg 76%
    09:00 +14°C° 0 mm 2 mps 554 mmHg 68%
    10:00 +16°C° 0 mm 3 mps 554 mmHg 60%
    11:00 +18°C° 0 mm 3 mps 555 mmHg 51%
    12:00 +20°C° 0 mm 4 mps 556 mmHg 43%
    13:00 +20°C° 0.4 mm 4 mps 555 mmHg 39%
    14:00 +21°C° 0.4 mm 5 mps 555 mmHg 36%
    15:00 +21°C° 0.4 mm 5 mps 554 mmHg 32%
    16:00 +20°C° 0 mm 5 mps 553 mmHg 34%
    17:00 +18°C° 0 mm 4 mps 552 mmHg 36%
    18:00 +17°C° 0 mm 4 mps 551 mmHg 38%
    19:00 +14°C° 0 mm 3 mps 551 mmHg 39%
    20:00 +12°C° 0 mm 3 mps 550 mmHg 40%
    21:00 +10°C° 0 mm 2 mps 550 mmHg 41%
    22:00 +10°C° 0 mm 2 mps 549 mmHg 39%
    23:00 +10°C° 0 mm 2 mps 549 mmHg 36%

    Tomorrow, 20 February, Wednesday

    Time Temperature Precipitation Wind Pressure Humidity
    00:00 +9°C° 0 mm 2 mps 549 mmHg 33%
    01:00 +9°C° 0 mm 2 mps 548 mmHg 35%
    02:00 +8°C° 0 mm 2 mps 548 mmHg 36%
    03:00 +8°C° 0 mm 2 mps 547 mmHg 38%
    04:00 +8°C° 0 mm 2 mps 547 mmHg 42%
    05:00 +7°C° 0 mm 2 mps 547 mmHg 46%
    06:00 +7°C° 0 mm 2 mps 547 mmHg 51%
    07:00 +9°C° 0 mm 2 mps 549 mmHg 44%
    08:00 +13°C° 0 mm 2 mps 550 mmHg 38%
    09:00 +15°C° 0 mm 2 mps 552 mmHg 32%
    10:00 +17°C° 0 mm 2 mps 553 mmHg 28%
    11:00 +19°C° 0 mm 2 mps 554 mmHg 24%
    12:00 +21°C° 0 mm 2 mps 554 mmHg 20%
    13:00 +21°C° 0 mm 3 mps 554 mmHg 21%
    14:00 +21°C° 0 mm 3 mps 553 mmHg 22%
    15:00 +21°C° 0 mm 4 mps 553 mmHg 22%
    16:00 +20°C° 0 mm 3 mps 552 mmHg 29%
    17:00 +18°C° 0 mm 3 mps 551 mmHg 35%
    18:00 +16°C° 0 mm 3 mps 550 mmHg 41%
    19:00 +14°C° 0 mm 2 mps 550 mmHg 49%
    20:00 +12°C° 0 mm 1 mps 549 mmHg 57%
    21:00 +10°C° 0 mm 1 mps 549 mmHg 64%
    22:00 +10°C° 0 mm 1 mps 549 mmHg 64%
    23:00 +10°C° 0 mm 1 mps 549 mmHg 64%

    Day after tomorrow, 21 February, Thursday

    Time Temperature Precipitation Wind Pressure Humidity
    00:00 +9°C° 0 mm 1 mps 549 mmHg 64%
    01:00 +9°C° 0 mm 1 mps 548 mmHg 60%
    02:00 +9°C° 0 mm 1 mps 548 mmHg 56%
    03:00 +8°C° 0 mm 1 mps 547 mmHg 51%
    04:00 +8°C° 0 mm 1 mps 547 mmHg 51%
    05:00 +7°C° 0 mm 2 mps 547 mmHg 50%
    06:00 +6°C° 0 mm 2 mps 547 mmHg 49%
    07:00 +10°C° 0 mm 1 mps 549 mmHg 45%
    08:00 +12°C° 0 mm 1 mps 551 mmHg 41%
    09:00 +15°C° 0 mm 1 mps 553 mmHg 37%
    10:00 +16°C° 0 mm 2 mps 554 mmHg 33%
    11:00 +18°C° 0 mm 2 mps 554 mmHg 30%
    12:00 +20°C° 0 mm 3 mps 555 mmHg 26%
    13:00 +20°C° 0 mm 3 mps 554 mmHg 26%
    14:00 +21°C° 0 mm 3 mps 554 mmHg 26%
    15:00 +21°C° 0 mm 4 mps 553 mmHg 26%
    16:00 +19°C° 0 mm 3 mps 552 mmHg 31%
    17:00 +18°C° 0 mm 3 mps 552 mmHg 35%
    18:00 +17°C° 0 mm 2 mps 551 mmHg 40%
    19:00 +15°C° 0 mm 2 mps 550 mmHg 43%
    20:00 +13°C° 0 mm 2 mps 550 mmHg 46%
    21:00 +10°C° 0 mm 2 mps 550 mmHg 49%
    22:00 +11°C° 0 mm 1 mps 549 mmHg 46%
    23:00 +10°C° 0 mm 1 mps 549 mmHg 42%

    22 February, Friday

    Time Temperature Precipitation Wind Pressure Humidity
    00:00 +10°C° 0 mm 1 mps 549 mmHg 39%
    01:00 +9°C° 0 mm 1 mps 549 mmHg 38%
    02:00 +9°C° 0 mm 1 mps 548 mmHg 37%
    03:00 +9°C° 0 mm 1 mps 548 mmHg 36%
    04:00 +9°C° 0 mm 1 mps 548 mmHg 36%
    05:00 +8°C° 0 mm 1 mps 548 mmHg 36%
    06:00 +8°C° 0 mm 1 mps 548 mmHg 36%
    07:00 +11°C° 0 mm 1 mps 550 mmHg 33%
    08:00 +13°C° 0 mm 1 mps 552 mmHg 29%
    09:00 +15°C° 0 mm 0 mps 554 mmHg 25%
    10:00 +19°C° 0 mm 1 mps 555 mmHg 24%
    11:00 +20°C° 0 mm 1 mps 555 mmHg 23%
    12:00 +21°C° 0 mm 2 mps 556 mmHg 21%
    13:00 +21°C° 0 mm 2 mps 555 mmHg 23%
    14:00 +22°C° 0 mm 3 mps 555 mmHg 25%
    15:00 +22°C° 0 mm 3 mps 554 mmHg 26%
    16:00 +20°C° 0.1 mm 3 mps 554 mmHg 33%
    17:00 +19°C° 0.1 mm 2 mps 553 mmHg 40%
    18:00 +17°C° 0.1 mm 2 mps 552 mmHg 46%
    19:00 +15°C° 0 mm 2 mps 552 mmHg 53%
    20:00 +13°C° 0 mm 1 mps 551 mmHg 60%
    21:00 +11°C° 0 mm 1 mps 551 mmHg 67%
    22:00 +11°C° 0 mm 1 mps 551 mmHg 68%
    23:00 +11°C° 0 mm 1 mps 550 mmHg 68%

    23 February, Saturday

    Time Temperature Precipitation Wind Pressure Humidity
    00:00 +10°C° 0 mm 1 mps 550 mmHg 69%
    01:00 +10°C° 0 mm 1 mps 550 mmHg 65%
    02:00 +9°C° 0 mm 2 mps 550 mmHg 62%
    03:00 +9°C° 0 mm 2 mps 549 mmHg 58%
    04:00 +8°C° 0 mm 2 mps 549 mmHg 60%
    05:00 +8°C° 0 mm 2 mps 549 mmHg 62%
    06:00 +8°C° 0 mm 2 mps 549 mmHg 64%
    07:00 +11°C° 0 mm 1 mps 551 mmHg 57%
    08:00 +13°C° 0 mm 1 mps 553 mmHg 50%
    09:00 +16°C° 0 mm 1 mps 554 mmHg 43%
    10:00 +18°C° 0 mm 1 mps 555 mmHg 40%
    11:00 +20°C° 0 mm 1 mps 556 mmHg 36%
    12:00 +21°C° 0 mm 2 mps 556 mmHg 33%
    13:00 +21°C° 0.3 mm 2 mps 556 mmHg 35%
    14:00 +21°C° 0.3 mm 2 mps 555 mmHg 37%
    15:00 +20°C° 0.3 mm 3 mps 554 mmHg 40%
    16:00 +19°C° 1.2 mm 3 mps 554 mmHg 45%
    17:00 +18°C° 1.2 mm 2 mps 553 mmHg 50%
    18:00 +16°C° 1.2 mm 2 mps 553 mmHg 56%
    19:00 +15°C° 0.6 mm 2 mps 552 mmHg 61%
    20:00 +13°C° 0.6 mm 1 mps 552 mmHg 66%
    21:00 +11°C° 0.6 mm 1 mps 552 mmHg 71%
    22:00 +11°C° 0.1 mm 1 mps 551 mmHg 71%
    23:00 +11°C° 0.1 mm 1 mps 551 mmHg 71%

    24 February, Sunday

    Time Temperature Precipitation Wind Pressure Humidity
    00:00 +11°C° 0.1 mm 1 mps 551 mmHg 71%
    01:00 +10°C° 0 mm 1 mps 551 mmHg 71%
    02:00 +10°C° 0 mm 1 mps 550 mmHg 71%
    03:00 +10°C° 0 mm 1 mps 550 mmHg 71%
    04:00 +9°C° 0 mm 1 mps 550 mmHg 70%
    05:00 +9°C° 0 mm 1 mps 550 mmHg 70%
    06:00 +9°C° 0 mm 1 mps 550 mmHg 70%
    07:00 +11°C° 0 mm 1 mps 552 mmHg 62%
    08:00 +13°C° 0 mm 1 mps 553 mmHg 54%
    09:00 +15°C° 0 mm 1 mps 555 mmHg 46%
    10:00 +18°C° 0 mm 1 mps 555 mmHg 43%
    11:00 +18°C° 0 mm 2 mps 556 mmHg 39%
    12:00 +20°C° 0 mm 2 mps 556 mmHg 35%
    13:00 +20°C° 0.1 mm 3 mps 556 mmHg 38%
    14:00 +20°C° 0.1 mm 3 mps 555 mmHg 40%
    15:00 +20°C° 0.1 mm 4 mps 554 mmHg 42%
    16:00 +18°C° 0.1 mm 4 mps 553 mmHg 53%
    17:00 +15°C° 0.1 mm 4 mps 553 mmHg 64%
    18:00 +14°C° 0.1 mm 3 mps 552 mmHg 75%
    19:00 +13°C° 0.1 mm 3 mps 552 mmHg 80%
    20:00 +12°C° 0.1 mm 2 mps 552 mmHg 86%
    21:00 +10°C° 0.1 mm 2 mps 551 mmHg 91%
    22:00 +11°C° 0 mm 1 mps 551 mmHg 90%
    23:00 +10°C° 0 mm 1 mps 551 mmHg 89%
    Show more